Location: Clanezzo
(45.7500°N, 9.6000°E)
Time: 06:29:31
(UTC+00:00)

Gbstr 26 Del rocket - Pass Details

Date: 26 September 2021
Orbit: 492 x 1263 km, 51.8° (Epoch: 20 October)

Event Time Altitude Azimuth Distance (km) Brightness Sun altitude
Exits shadow 04:33:37 - 267° (W) 3,123 5.9 -7.8°
Reaches altitude 10° 04:34:20 10° 261° (W) 3,019 5.9 -7.7°
Maximum altitude 04:36:29 11° 244° (WSW) 2,836 5.8 -7.3°
Drops below altitude 10° 04:38:34 10° 227° (SW) 2,868 6.0 -6.9°
Sets 04:43:16 0° 195° (SSW) 3,612 6.8 -6.1°
